Home > Weather > Nagano > Past weeks

Flag for Japan Past Weather in Nagano, Japan — Yesterday and Last 2 Weeks

Now
65 °F

Mild.


Feels Like: 65 °F
Forecast: 66 / 86 °F
Wind: 5 mph from East

Location: Nagano

Current Time: Aug 27, 2016 at 8:51:53 PM

Latest Report: Aug 27, 2016 at 8:00 PM


Visibility: N/A

Pressure: 29.76 "Hg

Humidity: 98%

Dew Point: 64 °F

Location of NaganoLocation

Past Weather in Nagano — Graph

°F

Nagano Temperature Yesterday

Maximum temperature yesterday: 91 °F (at 12:00 PM)
Minimum temperature yesterday: 72 °F (at 11:00 PM)
Average temperature yesterday: 79 °F

High & Low Weather Summary for the Past Weeks

 TemperatureHumidityPressure
High95 °F (Aug 21, 3:00 PM)99% (Aug 27, 3:00 PM)29.80 "Hg (Aug 27, 3:00 PM)
Low66 °F (Aug 27, 7:00 PM)42% (Aug 25, 1:00 PM)29.47 "Hg (Aug 16, 4:00 PM)
Average79 °F74%29.66 "Hg
* Reported Aug 12 7:00 PM — Aug 27 7:00 PM, Nagano, Weather by CustomWeather, © 2016

Note: Actual official high and low records may vary slightly from our data, if they occured in-between our weather recording intervals... More about our weather records

Advertising

Nagano Weather History for the Previous 24 Hours

Scroll right to see more
 ConditionsComfort  
Time TempWeatherWind HumidityBarometerVisibility
7:00 PM
Sat, Aug 27
66 °FMild.5 mph90%29.74 "HgN/A
6:00 PM67 °FMild.2 mph95%29.72 "HgN/A
5:00 PM67 °FMild.5 mph93%29.72 "HgN/A
4:00 PM67 °FMild.5 mph93%29.72 "HgN/A
3:00 PM67 °FSprinkles. Low clouds.8 mph99%29.72 "Hg2 mi
2:00 PM68 °FMild.5 mph94%29.73 "HgN/A
1:00 PM68 °FMild.6 mph92%29.74 "HgN/A
12:00 PM70 °FMild.8 mph81%29.75 "HgN/A
11:00 AM69 °FMild.10 mph84%29.76 "HgN/A
10:00 AM69 °FMild.9 mph80%29.76 "HgN/A
9:00 AM69 °FSprinkles. Overcast.6 mph84%29.76 "Hg9 mi
8:00 AM69 °FMild.8 mph87%29.75 "HgN/A
7:00 AM69 °FMild.3 mph89%29.75 "HgN/A
6:00 AM69 °FMild.5 mph92%29.74 "HgN/A
5:00 AM69 °FMild.8 mph97%29.72 "HgN/A
4:00 AM71 °FMild.5 mph83%29.70 "HgN/A
3:00 AM72 °FSprinkles. Overcast.5 mph84%29.69 "Hg9 mi
2:00 AM72 °FMild.5 mph91%29.70 "HgN/A
1:00 AM72 °FMild.8 mph94%29.70 "HgN/A
12:00 AM72 °FMild.6 mph92%29.70 "HgN/A
11:00 PM
Fri, Aug 26
72 °FMild.5 mph91%29.70 "HgN/A
10:00 PM72 °FMild.12 mph90%29.70 "HgN/A
9:00 PM73 °FSprinkles. Overcast.8 mph88%29.70 "Hg6 mi
8:00 PM76 °FMild.9 mph83%29.67 "HgN/A
Weather by CustomWeather, © 2016

See weather overviewHow to use our weather pages